Hourly Data Report for October 08, 2015

All times are specified in Local Standard Time (LST). Add 1 hour to adjust for Daylight Saving Time where and when it is observed.

QIKIQTARJUAQ A
NUNAVUT

67°32'48.000" N
64°01'54.000" W
5.50 m
2400577
YVM

Download Data

Hourly Data (October 2015)
Hourly Data Report for October 8, 2015
Temp Definition
°C
Dew Point Temp Definition
°C
Rel Hum Definition
%
Wind Dir Definition
10's deg

Wind Spd Definition
km/h
Visibility Definition
km
Stn Press Definition
kPa
Hmdx Definition


Wind Chill Definition


Weather Definition


TIME
00:00 Legend Double Dagger -4.3 -8.3 74 19 8 16.1 100.29   -8 LegendNANA
01:00 Legend Double Dagger -3.9 -8.2 72 20 13 16.1 100.29   -9 LegendNANA
02:00 Legend Double Dagger -3.6 -8.1 71 19 9 16.1 100.29   -7 LegendNANA
03:00 Legend Double Dagger -4.3 -7.3 80 19 5 16.1 100.30   -6 LegendNANA
04:00 Legend Double Dagger -3.8 -7.6 75 18 8 16.1 100.30   -7 LegendNANA
05:00 Legend Double Dagger -3.6 -7.3 76 18 11 16.1 100.31   -8 LegendNANA
06:00 Legend Double Dagger -3.8 -7.6 75 16 4 16.1 100.30   -5 LegendNANA
07:00 Legend Double Dagger -3.7 -7.6 74 11 5 16.1 100.30   -6 LegendNANA
08:00 Legend Double Dagger -3.6 -7.5 74 19 5 16.1 100.30   -6 LegendNANA
09:00 Legend Double Dagger -3.3 -7.1 75 19 8 16.1 100.30   -7 LegendNANA
10:00 Legend Double Dagger -3.1 -7.1 74 19 11 16.1 100.27   -7 LegendNANA
11:00 Legend Double Dagger -2.9 -8.1 68 21 13 16.1 100.25   -8 LegendNANA
12:00 Legend Double Dagger -2.8 -8.4 65 23 8 16.1 100.28   -6 LegendNANA
13:00 Legend Double Dagger -2.9 -8.1 68 19 8 16.1 100.30   -6 LegendNANA
14:00 Legend Double Dagger -3.0 -7.9 69 19 9 16.1 100.33   -7 LegendNANA
15:00 Legend Double Dagger -3.3 -7.5 73 19 9 16.1 100.36   -7 LegendNANA
16:00 Legend Double Dagger -4.4 -8.2 75 20 9 16.1 100.37   -8 LegendNANA
17:00 Legend Double Dagger -6.1 -9.3 78 14 8 16.1 100.37   -10 LegendNANA
18:00 Legend Double Dagger -5.8 -9.2 77 LegendMM 4 16.1 100.39   -8 LegendNANA
19:00 Legend Double Dagger -6.1 -9.1 80 19 11 16.1 100.42   -11 LegendNANA
20:00 Legend Double Dagger -5.7 -9.0 78 20 11 16.1 100.42   -10 LegendNANA
21:00 Legend Double Dagger -6.3 -9.4 79 13 8 16.1 100.42   -10 LegendNANA
22:00 Legend Double Dagger -6.8 -9.8 79 17 5 16.1 100.43   -9 LegendNANA
23:00 Legend Double Dagger -6.9 -10.6 75 19 11 16.1 100.43   -12 LegendNANA

Notes on Data Quality.

Legend

  • E = Estimated
  • M = Missing
  • NA = Not Available
  • ‡ = Partner data that is not subject to review by the National Climate Archives
Date modified: